Location: Miles
(41.4492°N, 81.6087°W)
Time: 22:48:59
(UTC+00:00)

Vanguard 2 Rocket - Pass Details

Date: 24 September 2024
Orbit: 553 x 3298 km, 32.9° (Epoch: 12 October)

Event Time Altitude Azimuth Distance (km) Brightness Sun altitude
Rises 10:32:53 0° 272° (W) 5,183 - -9.0°
Exits shadow 10:36:16 - 262° (W) 4,606 9.8 -8.4°
Reaches altitude 10° 10:36:33 10° 261° (W) 4,566 9.8 -8.3°
Maximum altitude 10:47:13 28° 209° (SSW) 4,154 10.0 -6.3°
Drops below altitude 10° 11:01:33 10° 160° (SSE) 6,153 11.4 -3.6°
Sets 11:07:43 0° 150° (SSE) 7,266 11.9 -2.5°
